Regional Weather Roundup
Issued by NWS Sioux Falls, SD

Home | Current Version | Previous Version | Graphics & Text | Print | Product List | Glossary On
Versions: 1 2 3 4 5 6 7 8 9 10 11 12 13 14 15 16 17 18 19 20 21 22 23 24 25 26 27 28 29 30 31 32 33 34 35 36 37 38 39 40 41 42 43 44 45 46 47 48 49 50
000
ASUS43 KFSD 091010
RWRFSD

WEATHER ROUNDUP FOR SE SOUTH DAKOTA/SW MINNESOTA/NW IOWA
NATIONAL WEATHER SERVICE SIOUX FALLS SD
400 AM CST TUE FEB 09 2016

NOTE: "FAIR" INDICATES FEW OR NO CLOUDS BELOW 12,000 FEET WITH NO
SIGNIFICANT WEATHER AND OR OBSTRUCTIONS TO VISIBILITY.


SDZ038>040-050-052>070-091100-
SOUTHEAST SOUTH DAKOTA

CITY           SKY/WX    TMP DP  RH WIND       PRES   REMARKS
BROOKINGS      CLEAR      5   0  79 N18G25    30.14S WCI -15
CHAMBERLAIN    CLOUDY    21  10  63 N16       30.24F WCI   7
HURON          CLEAR     13   8  81 N13       30.25S WCI  -2
MADISON        FAIR       7   5  92 N17       30.15S WCI -12
MITCHELL       CLEAR     15   9  76 NW14      30.24S WCI   0
SIOUX FALLS    CLEAR      9   2  73 N23       30.14S WCI -11
WINNER         CLOUDY    24  15  68 N12       30.24R WCI  13
YANKTON        CLEAR     16   7  67 NW20      30.20R WCI  -1
$$

MNZ071-072-080-081-089-090-097-098-091100-
SOUTHWEST MINNESOTA

CITY           SKY/WX    TMP DP  RH WIND       PRES   REMARKS
FAIRMONT       CLOUDY     9   1  72 NW24      30.04R WCI -12
JACKSON        CLOUDY     7   1  78 NW26G32   30.07R HAZE    WCI -16
LUVERNE        CLEAR      9   3  78 N15G24    30.13S WCI  -8
MARSHALL       CLOUDY     6   1  80 N23       30.14R WCI -15
MONTEVIDEO     CLEAR      5   1  85 N17G28    30.17S WCI -14
PIPESTONE      CLEAR      7  -4  61 N16G23    30.10S WCI -11
REDWOOD FALLS  CLEAR      7   1  76 NW15G24   30.12R WCI -10
TRACY          CLEAR      7   2  82 N21G29    30.12R WCI -13
WINDOM         PTCLDY     5   1  85 NW29G35   30.07R FOG     WCI -19
WORTHINGTON    CLOUDY     5  -2  72 N25       30.09R WCI -18
$$

IAZ001>003-012>014-020>022-031-032-NEZ013-014-SDZ071-091100-
NORTHWEST IOWA

CITY           SKY/WX    TMP DP  RH WIND       PRES   REMARKS
CHEROKEE       CLOUDY     8   4  86 N20       30.12R FOG     WCI -12
DENISON        CLOUDY     9   3  78 N20G26    30.09R WCI -11
ESTHERVILLE    CLOUDY     6   2  83 NW26      30.07R FOG     WCI -16
LE MARS        PTCLDY    10   5  79 N12       30.18R WCI  -4
ORANGE CITY    PTCLDY     9   3  78 N14G21    30.12R WCI  -8
SHELDON        CLOUDY     7   3  85 N21       30.11R FOG     WCI -13
SIOUX CITY     CLEAR     15   5  64 N22       30.15R WCI  -3
SPENCER        CLOUDY     6   0  76 N25G35    30.09R BLWGSNOWWCI -16
STORM LAKE     CLOUDY     7   5  92 NW22      30.08R FOG     WCI -14
$$

ABBREVIATIONS USED IN REMARKS
   TC - TEMPERATURE IN CELSIUS
  WCI - WIND CHILL INDEX
   HX - HEAT INDEX
  VSB - VISIBILITY




USA.gov is the U.S. government's official web portal to all federal, state and local government web resources and services.